Location: Gunnison Valley Observatory
(38.5087°N, 106.9386°W)
Time: 01:04:15
(UTC-06:00)

Amateur Radio Satellites - All Passes

Search period start: 03 September 2014 00:34
Search period end: 04 September 2014 00:34
Location: Gunnison Valley Observatory, 38.5087°N, 106.9386°W

Satellite Date Start Highest point End Downlink Frequencies (MHz)
Time Altitude Azimuth
Sapphire 03 Sep 01:18:12 01:23:13 36° 55° (NE) 01:28:11 437.095 MHz 1200 baud AX-25 AFSK
AO-40 03 Sep 01:24:24 02:49:56 20° 230° (SW) 05:23:15 Beacon 2401.320
KITSAT 1 03 Sep 01:32:08 01:38:06 22° 321° (NW) 01:44:05 435.175 FM
PCSat 03 Sep 01:47:04 01:52:29 68° 61° (ENE) 01:57:52 145.825 MHz
Oscar 19 03 Sep 01:49:39 01:53:43 23° 94° (E) 01:57:45 437.125 CW, 437.150 USB
SO-50 03 Sep 01:50:43 01:51:04 10° 106° (ESE) 01:51:25 436.795 FM
JAS-1B 03 Sep 01:57:23 01:58:35 11° 85° (E) 01:59:46 435.800 - 435.900 CW/SSB
Oscar 16 03 Sep 02:24:25 02:29:30 52° 100° (E) 02:34:32 437.025 USB, Beacon 2401.1428
ITAMSAT 1 03 Sep 02:29:58 02:34:06 24° 95° (E) 02:38:12 435.822 SSB
Uribyol 2 03 Sep 02:38:40 02:43:15 31° 97° (E) 02:47:48 436.500 FM
TMSAT-1 03 Sep 02:58:49 03:01:39 14° 91° (E) 03:04:28 436.925 FM
AO-27 03 Sep 02:59:20 03:04:20 47° 100° (E) 03:09:19 436.795 MHz FM
Sapphire 03 Sep 03:01:50 03:06:29 30° 252° (WSW) 03:11:07 437.095 MHz 1200 baud AX-25 AFSK
OPAL 03 Sep 03:23:29 03:26:11 15° 59° (ENE) 03:28:55 ?
SO-50 03 Sep 03:26:28 03:30:55 74° 302° (WNW) 03:35:30 436.795 FM
AO-Echo 03 Sep 03:27:07 03:31:50 81° 284° (WNW) 03:36:34 ?
Oscar 19 03 Sep 03:28:20 03:33:10 40° 290° (WNW) 03:37:57 437.125 CW, 437.150 USB
PCSat 03 Sep 03:32:20 03:35:16 15° 257° (WSW) 03:38:11 145.825 MHz
JAS-1B 03 Sep 03:43:53 03:50:25 84° 286° (WNW) 03:56:10 435.800 - 435.900 CW/SSB
Gurwin Techsat 1B 03 Sep 03:47:32 03:52:48 61° 101° (E) 03:58:02 435.225 FM
Oscar 16 03 Sep 04:04:53 04:08:25 19° 296° (WNW) 04:11:56 437.025 USB, Beacon 2401.1428
ITAMSAT 1 03 Sep 04:08:53 04:13:40 39° 290° (WNW) 04:18:27 435.822 SSB
Uribyol 2 03 Sep 04:18:08 04:22:38 30° 292° (WNW) 04:27:07 436.500 FM
Uosat F 03 Sep 04:22:13 04:25:13 16° 92° (E) 04:28:12 435.120 FM
AO-7 03 Sep 04:29:23 04:36:17 28° 96° (E) 04:43:06 29.400 - 29.500 MHz
TMSAT-1 03 Sep 04:36:44 04:41:59 64° 286° (WNW) 04:47:12 436.925 FM
AO-27 03 Sep 04:39:44 04:43:29 21° 295° (WNW) 04:47:15 436.795 MHz FM
OPAL 03 Sep 04:59:24 05:04:26 70° 256° (WSW) 05:09:35 ?
UOSAT-12 03 Sep 05:05:38 05:10:14 88° 119° (ESE) 05:14:57 437.025 FM, 437.400 FM
SO-50 03 Sep 05:11:10 05:12:19 11° 322° (NW) 05:13:28 436.795 FM
Gurwin Techsat 1B 03 Sep 05:28:58 05:32:14 17° 297° (WNW) 05:35:30 435.225 FM
KITSAT 1 03 Sep 05:35:30 05:37:48 11° 23° (NNE) 05:40:06 435.175 FM
JAS-1B 03 Sep 05:37:35 05:39:45 12° 307° (NW) 05:41:49 435.800 - 435.900 CW/SSB
Uosat F 03 Sep 05:59:25 06:04:18 54° 288° (WNW) 06:09:09 435.120 FM
Hamsat 03 Sep 06:15:56 06:19:20 22° 94° (E) 06:22:42 145.90 MHz
AO-7 03 Sep 06:21:21 06:29:26 60° 293° (WNW) 06:37:30 29.400 - 29.500 MHz
UOSAT-12 03 Sep 06:48:44 06:51:03 14° 319° (NW) 06:53:24 437.025 FM, 437.400 FM
STRAND 1 03 Sep 06:49:26 06:54:24 58° 73° (ENE) 06:59:24 ?
RS-15 03 Sep 06:55:51 07:06:23 51° 111° (ESE) 07:16:42 29.354 - 29.394 USB, Beacon 29.352 USB
Saudisat 1A 03 Sep 07:00:08 07:04:33 69° 57° (ENE) 07:08:55 436.775 MHz
JAS-2 03 Sep 07:05:27 07:10:48 71° 102° (ESE) 07:16:41 435.800 - 435.900 CW/SSB, 435.910 FM
KITSAT 1 03 Sep 07:28:32 07:35:58 38° 50° (NE) 07:43:20 435.175 FM
SO-67 03 Sep 07:42:18 07:45:16 26° 96° (E) 07:48:13 435.3500 MHz FM
Hamsat 03 Sep 07:51:32 07:55:16 29° 290° (WNW) 07:58:58 145.90 MHz
AO-7 03 Sep 08:17:29 08:20:30 12° 313° (NW) 08:23:32 29.400 - 29.500 MHz
STRAND 1 03 Sep 08:31:04 08:33:56 15° 268° (W) 08:36:50 ?
ISS 03 Sep 08:31:30 08:33:59 20° 131° (SE) 08:36:29 145.800 FM
Saudisat 1A 03 Sep 08:42:25 08:43:31 11° 253° (WSW) 08:44:36 436.775 MHz
JAS-2 03 Sep 08:52:41 08:55:26 14° 297° (WNW) 08:58:16 435.800 - 435.900 CW/SSB, 435.910 FM
RS-15 03 Sep 09:08:17 09:18:46 47° 312° (NW) 09:29:12 29.354 - 29.394 USB, Beacon 29.352 USB
SO-67 03 Sep 09:16:01 09:18:05 15° 291° (WNW) 09:20:09 435.3500 MHz FM
KITSAT 1 03 Sep 09:23:50 09:31:31 50° 249° (WSW) 09:39:10 435.175 FM
HO-68 03 Sep 09:36:14 09:42:53 40° 99° (E) 09:49:30 435.675 MHz FM
UKube-1 03 Sep 09:55:29 09:59:06 25° 96° (E) 10:02:41 145.840 MHz, 145.915 MHz
Oscar 11 03 Sep 09:57:57 10:00:58 18° 93° (E) 10:03:57 145.825 FM, Beacon 2401.500 USB
ISS 03 Sep 10:07:22 10:10:31 40° 327° (NNW) 10:13:41 145.800 FM
SO-50 03 Sep 10:21:34 10:22:37 11° 38° (NE) 10:23:40 436.795 FM
FUNcube-1 03 Sep 10:34:11 10:37:27 19° 93° (E) 10:40:43 145.950 - 145.970 MHz USB
PANSAT 03 Sep 10:39:20 10:41:30 15° 169° (SSE) 10:43:41 not established
HO-68 03 Sep 11:24:02 11:30:29 38° 295° (WNW) 11:36:56 435.675 MHz FM
RS-15 03 Sep 11:27:59 11:34:55 18° 344° (NNW) 11:41:55 29.354 - 29.394 USB, Beacon 29.352 USB
UKube-1 03 Sep 11:31:36 11:35:13 26° 291° (WNW) 11:38:49 145.840 MHz, 145.915 MHz
Oscar 11 03 Sep 11:33:14 11:37:15 36° 288° (WNW) 11:41:14 145.825 FM, Beacon 2401.500 USB
ISS 03 Sep 11:46:46 11:47:58 12° 345° (NNW) 11:49:11 145.800 FM
SO-50 03 Sep 11:59:18 12:04:05 66° 57° (ENE) 12:08:54 436.795 FM
FUNcube-1 03 Sep 12:09:42 12:13:56 39° 288° (WNW) 12:18:12 145.950 - 145.970 MHz USB
MaSat-1 03 Sep 12:10:32 12:15:01 38° 107° (ESE) 12:19:46 437.345 MHz
PANSAT 03 Sep 12:18:20 12:21:03 18° 182° (S) 12:23:46 not established
JAS-1B 03 Sep 12:37:56 12:43:23 18° 57° (ENE) 12:48:28 435.800 - 435.900 CW/SSB
AO-Echo 03 Sep 13:03:21 13:05:18 12° 63° (ENE) 13:07:14 ?
Oscar 19 03 Sep 13:05:07 13:09:31 29° 68° (ENE) 13:13:57 437.125 CW, 437.150 USB
Gurwin Techsat 1B 03 Sep 13:32:47 13:33:23 10° 59° (ENE) 13:33:59 435.225 FM
UOSAT-12 03 Sep 13:36:44 13:41:20 50° 55° (NE) 13:45:52 437.025 FM, 437.400 FM
Oscar 16 03 Sep 13:39:53 13:44:58 65° 74° (ENE) 13:50:07 437.025 USB, Beacon 2401.1428
SO-50 03 Sep 13:41:43 13:44:06 14° 252° (WSW) 13:46:31 436.795 FM
RS-15 03 Sep 13:45:49 13:53:23 20° 22° (NNE) 14:01:04 29.354 - 29.394 USB, Beacon 29.352 USB
ITAMSAT 1 03 Sep 13:46:36 13:51:07 32° 68° (ENE) 13:55:38 435.822 SSB
MaSat-1 03 Sep 13:47:55 13:52:07 27° 305° (NW) 13:56:28 437.345 MHz
Uribyol 2 03 Sep 13:55:10 13:59:57 40° 70° (ENE) 14:04:45 436.500 FM
PANSAT 03 Sep 13:58:53 14:00:35 13° 194° (SSW) 14:02:16 not established
AO-27 03 Sep 14:16:03 14:21:09 62° 73° (ENE) 14:26:15 436.795 MHz FM
TMSAT-1 03 Sep 14:17:57 14:21:49 21° 65° (ENE) 14:25:41 436.925 FM
JAS-1B 03 Sep 14:23:04 14:32:46 76° 73° (ENE) 14:41:22 435.800 - 435.900 CW/SSB
AO-Echo 03 Sep 14:38:30 14:43:30 73° 258° (WSW) 14:48:21 ?
Oscar 19 03 Sep 14:44:11 14:48:45 32° 263° (W) 14:53:21 437.125 CW, 437.150 USB
ISS 03 Sep 15:01:05 15:03:43 21° 26° (NNE) 15:06:22 145.800 FM
Gurwin Techsat 1B 03 Sep 15:07:10 15:12:28 83° 75° (ENE) 15:17:48 435.225 FM
UOSAT-12 03 Sep 15:18:01 15:21:04 17° 251° (WSW) 15:24:04 437.025 FM, 437.400 FM
Oscar 16 03 Sep 15:22:15 15:24:46 14° 269° (W) 15:27:17 437.025 USB, Beacon 2401.1428
ITAMSAT 1 03 Sep 15:26:07 15:30:33 29° 264° (W) 15:35:01 435.822 SSB
AO-7 03 Sep 15:26:51 15:34:11 36° 61° (ENE) 15:41:30 29.400 - 29.500 MHz
Uosat F 03 Sep 15:34:09 15:37:44 20° 65° (ENE) 15:41:20 435.120 FM
Uribyol 2 03 Sep 15:35:34 15:39:32 22° 266° (W) 15:43:32 436.500 FM
TMSAT-1 03 Sep 15:56:18 16:01:22 47° 261° (W) 16:06:29 436.925 FM
RS-15 03 Sep 15:58:09 16:09:00 55° 51° (NE) 16:20:13 29.354 - 29.394 USB, Beacon 29.352 USB
AO-27 03 Sep 15:58:18 16:01:03 14° 268° (W) 16:03:49 436.795 MHz FM
Sapphire 03 Sep 15:58:30 16:03:34 43° 111° (ESE) 16:08:41 437.095 MHz 1200 baud AX-25 AFSK
JAS-1B 03 Sep 16:16:07 16:23:37 25° 267° (W) 16:30:37 435.800 - 435.900 CW/SSB
PCSat 03 Sep 16:27:06 16:32:30 85° 117° (ESE) 16:37:57 145.825 MHz
ISS 03 Sep 16:37:24 16:40:38 50° 223° (SW) 16:43:52 145.800 FM
Gurwin Techsat 1B 03 Sep 16:51:56 16:53:02 11° 271° (W) 16:54:08 435.225 FM
Hamsat 03 Sep 17:08:58 17:11:22 15° 65° (ENE) 17:13:46 145.90 MHz
OPAL 03 Sep 17:10:59 17:15:45 35° 99° (E) 17:20:27 ?
Uosat F 03 Sep 17:11:24 17:16:11 45° 260° (W) 17:20:58 435.120 FM
JAS-2 03 Sep 17:17:36 17:22:14 25° 67° (ENE) 17:26:34 435.800 - 435.900 CW/SSB, 435.910 FM
AO-7 03 Sep 17:18:39 17:26:40 51° 258° (WSW) 17:34:43 29.400 - 29.500 MHz
Sapphire 03 Sep 17:42:38 17:47:09 26° 309° (NW) 17:51:41 437.095 MHz 1200 baud AX-25 AFSK
RS-15 03 Sep 18:10:55 18:21:04 43° 252° (WSW) 18:31:38 29.354 - 29.394 USB, Beacon 29.352 USB
PCSat 03 Sep 18:13:28 18:16:38 16° 315° (NW) 18:19:49 145.825 MHz
Hamsat 03 Sep 18:42:43 18:46:53 48° 261° (W) 18:51:07 145.90 MHz
OPAL 03 Sep 18:50:05 18:54:27 28° 295° (WNW) 18:58:48 ?
JAS-2 03 Sep 19:01:29 19:07:10 42° 261° (W) 19:12:20 435.800 - 435.900 CW/SSB, 435.910 FM
STRAND 1 03 Sep 19:02:15 19:06:09 22° 94° (E) 19:10:02 ?
SO-67 03 Sep 19:46:12 19:49:35 56° 260° (W) 19:53:01 435.3500 MHz FM
HO-68 03 Sep 20:04:10 20:09:51 27° 61° (ENE) 20:15:33 435.675 MHz FM
STRAND 1 03 Sep 20:40:42 20:45:27 41° 290° (WNW) 20:50:13 ?
UKube-1 03 Sep 20:50:15 20:53:21 20° 67° (ENE) 20:56:27 145.840 MHz, 145.915 MHz
Oscar 11 03 Sep 20:52:59 20:54:55 13° 64° (ENE) 20:56:52 145.825 FM, Beacon 2401.500 USB
Saudisat 1A 03 Sep 21:05:55 21:09:30 25° 112° (ESE) 21:13:06 436.775 MHz
FUNcube-1 03 Sep 21:31:02 21:32:47 12° 64° (ENE) 21:34:33 145.950 - 145.970 MHz USB
HO-68 03 Sep 21:50:05 21:57:05 58° 258° (WSW) 22:04:07 435.675 MHz FM
KITSAT 1 03 Sep 21:56:08 22:02:48 29° 106° (ESE) 22:09:27 435.175 FM
MaSat-1 03 Sep 22:06:15 22:10:35 55° 62° (ENE) 22:14:18 437.345 MHz
UKube-1 03 Sep 22:25:20 22:29:18 35° 262° (W) 22:33:17 145.840 MHz, 145.915 MHz
Oscar 11 03 Sep 22:26:21 22:30:36 56° 260° (W) 22:34:54 145.825 FM, Beacon 2401.500 USB
Saudisat 1A 03 Sep 22:44:58 22:48:56 32° 309° (NW) 22:52:55 436.775 MHz
FUNcube-1 03 Sep 23:04:33 23:08:39 55° 260° (W) 23:12:52 145.950 - 145.970 MHz USB
MaSat-1 03 Sep 23:46:12 23:46:44 10° 263° (W) 23:47:14 437.345 MHz
KITSAT 1 03 Sep 23:49:42 23:57:39 60° 304° (WNW) 00:05:40 435.175 FM
